Location: Beutels
(47.8767°N, 9.8584°E)
Time: 05:54:51
(UTC+00:00)

Cosmos 1346 Rocket - Pass Details

Date: 19 May 2025
Orbit: 485 x 500 km, 81.2° (Epoch: 14 June)

Event Time Altitude Azimuth Distance (km) Brightness Sun altitude
Rises 21:06:14 0° 337° (NNW) 2,584 8.0 -16.1°
Reaches altitude 10° 21:08:36 10° 324° (NW) 1,694 6.7 -16.3°
Maximum altitude 21:11:40 25° 268° (W) 1,024 4.5 -16.6°
Enters shadow 21:14:18 12° 216° (SW) 1,536 4.9 -16.8°
